DAL934 KATL-KDFW

Flight info

Callsign DAL934
Flight time 2h 0m
Altitude 34000
Route CUTTN2 HANKO MEM LITTR FEWWW BRDJE5
Aircraft B739/M-SDE2E3FGHIRWXY/LB1

Departure

Time 2026-04-30 19:45
Airport Hartsfield Jackson Atlanta International Airport (KATL)

Arrival

Time 2026-04-30 21:45
Airport Dallas Fort Worth International Airport (KDFW)
Time Latitude Longitude Altitude Speed Heading
2026-04-30 19:26 33.63861 -84.42992 1005 ft 0 kts 90°
2026-04-30 19:33 33.63861 -84.43013 1005 ft 3 kts 90°
2026-04-30 19:34 33.63861 -84.43035 1005 ft 3 kts 98°
2026-04-30 19:34 33.63869 -84.43053 1005 ft 3 kts 161°
2026-04-30 19:34 33.63877 -84.43056 1005 ft 0 kts 181°
2026-04-30 19:36 33.63828 -84.43060 1005 ft 8 kts 182°
2026-04-30 19:37 33.63780 -84.43063 1005 ft 1 kts 183°
2026-04-30 19:37 33.63776 -84.43063 1005 ft 0 kts 183°
2026-04-30 19:38 33.63763 -84.43064 1005 ft 6 kts 182°
2026-04-30 19:39 33.63693 -84.43051 1005 ft 15 kts 148°
2026-04-30 19:39 33.63665 -84.42925 1005 ft 16 kts 89°
2026-04-30 19:39 33.63665 -84.42792 1005 ft 16 kts 95°
2026-04-30 19:39 33.63656 -84.42665 1006 ft 15 kts 93°
2026-04-30 19:40 33.63658 -84.42545 1006 ft 14 kts 90°
2026-04-30 19:40 33.63658 -84.42428 1006 ft 14 kts 90°
2026-04-30 19:40 33.63659 -84.42316 1006 ft 13 kts 89°
2026-04-30 19:40 33.63659 -84.42208 1006 ft 13 kts 90°
2026-04-30 19:41 33.63658 -84.42085 1006 ft 15 kts 91°
2026-04-30 19:41 33.63657 -84.41965 1005 ft 14 kts 90°
2026-04-30 19:41 33.63657 -84.41850 1005 ft 14 kts 89°
2026-04-30 19:41 33.63657 -84.41726 1005 ft 15 kts 90°
2026-04-30 19:42 33.63657 -84.41605 1005 ft 14 kts 90°
2026-04-30 19:42 33.63656 -84.41480 1005 ft 20 kts 90°
2026-04-30 19:42 33.63660 -84.41305 1005 ft 21 kts 87°
2026-04-30 19:42 33.63661 -84.41135 1005 ft 20 kts 93°
2026-04-30 19:43 33.63656 -84.40970 1005 ft 19 kts 91°
2026-04-30 19:43 33.63654 -84.40816 1005 ft 13 kts 92°
2026-04-30 19:43 33.63599 -84.40746 1006 ft 12 kts 171°
2026-04-30 19:44 33.63472 -84.40823 1006 ft 16 kts 268°
2026-04-30 19:44 33.63470 -84.41209 1004 ft 83 kts 269°
2026-04-30 19:44 33.63472 -84.42180 1005 ft 146 kts 269°
2026-04-30 19:44 33.63500 -84.43577 1209 ft 179 kts 276°
2026-04-30 19:45 33.63540 -84.45101 1821 ft 192 kts 276°
2026-04-30 19:45 33.63544 -84.46744 2570 ft 198 kts 272°
2026-04-30 19:45 33.63520 -84.48481 2853 ft 225 kts 272°
2026-04-30 19:45 33.63496 -84.50398 3257 ft 237 kts 272°
2026-04-30 19:46 33.63479 -84.52483 3490 ft 259 kts 272°
2026-04-30 19:46 33.63467 -84.54669 4143 ft 263 kts 272°
2026-04-30 19:46 33.63459 -84.56882 4846 ft 267 kts 274°
2026-04-30 19:46 33.63456 -84.59130 5522 ft 271 kts 273°
2026-04-30 19:47 33.63455 -84.61388 6312 ft 270 kts 273°
2026-04-30 19:47 33.63454 -84.62879 6799 ft 271 kts 272°
2026-04-30 19:47 33.63454 -84.65902 7792 ft 270 kts 271°
2026-04-30 19:47 33.63461 -84.68168 8500 ft 271 kts 271°
2026-04-30 19:48 33.63472 -84.70430 9243 ft 272 kts 271°
2026-04-30 19:48 33.63537 -84.72702 9923 ft 273 kts 280°
2026-04-30 19:48 33.64169 -84.74871 10392 ft 283 kts 293°
2026-04-30 19:48 33.65039 -84.77095 10539 ft 304 kts 294°
2026-04-30 19:49 33.65981 -84.79454 10706 ft 323 kts 295°
2026-04-30 19:49 33.68016 -84.84566 10998 ft 358 kts 294°
2026-04-30 19:49 33.69103 -84.87327 11171 ft 372 kts 294°
2026-04-30 19:50 33.70214 -84.90160 11591 ft 377 kts 294°
2026-04-30 19:50 33.71327 -84.93007 12158 ft 377 kts 294°
2026-04-30 19:50 33.72442 -84.95866 12743 ft 378 kts 294°
2026-04-30 19:50 33.73553 -84.98722 13281 ft 379 kts 294°
2026-04-30 19:51 33.74674 -85.01609 13781 ft 381 kts 294°
2026-04-30 19:51 33.75796 -85.04498 14227 ft 382 kts 294°
2026-04-30 19:51 33.76919 -85.07393 14692 ft 382 kts 294°
2026-04-30 19:51 33.78045 -85.10298 15141 ft 384 kts 293°
2026-04-30 19:52 33.79171 -85.13207 15611 ft 384 kts 293°
2026-04-30 19:52 33.80302 -85.16128 16066 ft 385 kts 293°
2026-04-30 19:52 33.81298 -85.19112 16493 ft 385 kts 286°
2026-04-30 19:52 33.81922 -85.22242 16924 ft 385 kts 279°
2026-04-30 19:53 33.82158 -85.25418 17338 ft 387 kts 273°
2026-04-30 19:53 33.82277 -85.28653 17763 ft 387 kts 273°
2026-04-30 19:53 33.82403 -85.31892 18172 ft 388 kts 273°
2026-04-30 19:53 33.82536 -85.35144 18524 ft 389 kts 274°
2026-04-30 19:54 33.82673 -85.38405 18875 ft 390 kts 274°
2026-04-30 19:54 33.82813 -85.41661 19228 ft 390 kts 273°
2026-04-30 19:54 33.82954 -85.44922 19575 ft 390 kts 273°
2026-04-30 19:54 33.83094 -85.48186 19892 ft 391 kts 273°
2026-04-30 19:55 33.83234 -85.51458 20200 ft 392 kts 273°
2026-04-30 19:55 33.83375 -85.54742 20496 ft 393 kts 273°
2026-04-30 19:55 33.83514 -85.58025 20804 ft 394 kts 273°
2026-04-30 19:55 33.83651 -85.61317 21112 ft 394 kts 273°
2026-04-30 19:56 33.83789 -85.64608 21400 ft 394 kts 272°
2026-04-30 19:56 33.83963 -85.67901 21672 ft 395 kts 274°
2026-04-30 19:56 33.84204 -85.71197 21934 ft 396 kts 275°
2026-04-30 19:56 33.84470 -85.74492 22243 ft 396 kts 275°
2026-04-30 19:57 33.84741 -85.77791 22466 ft 397 kts 275°
2026-04-30 19:57 33.85007 -85.81068 22677 ft 398 kts 275°
2026-04-30 19:57 33.85270 -85.84384 22909 ft 399 kts 274°
2026-04-30 19:57 33.85528 -85.87708 23126 ft 399 kts 274°
2026-04-30 19:58 33.85783 -85.91040 23335 ft 400 kts 274°
2026-04-30 19:58 33.86035 -85.94379 23541 ft 401 kts 274°
2026-04-30 19:58 33.86285 -85.97723 23717 ft 401 kts 274°
2026-04-30 19:58 33.86534 -86.01076 23894 ft 401 kts 274°
2026-04-30 19:59 33.86782 -86.04418 24058 ft 402 kts 274°
2026-04-30 19:59 33.87029 -86.07768 24213 ft 402 kts 274°
2026-04-30 19:59 33.87520 -86.14472 24509 ft 403 kts 274°
2026-04-30 20:00 33.87765 -86.17831 24651 ft 403 kts 274°
2026-04-30 20:00 33.88009 -86.21192 24839 ft 402 kts 274°
2026-04-30 20:00 33.88252 -86.24548 25032 ft 401 kts 274°
2026-04-30 20:00 33.88493 -86.27893 25152 ft 402 kts 274°
2026-04-30 20:01 33.88971 -86.34565 25366 ft 404 kts 275°
2026-04-30 20:01 33.89211 -86.37938 25479 ft 405 kts 275°
2026-04-30 20:01 33.89450 -86.41312 25631 ft 404 kts 275°
2026-04-30 20:02 33.89926 -86.48057 25849 ft 405 kts 275°
2026-04-30 20:02 33.90163 -86.51434 25918 ft 406 kts 275°
2026-04-30 20:03 33.90633 -86.58174 26072 ft 406 kts 274°
2026-04-30 20:03 33.90870 -86.61589 26243 ft 404 kts 275°
2026-04-30 20:03 33.91102 -86.64957 26421 ft 402 kts 275°
2026-04-30 20:03 33.91332 -86.68308 26581 ft 401 kts 275°
2026-04-30 20:04 33.91561 -86.71654 26723 ft 401 kts 275°
2026-04-30 20:04 33.91788 -86.74995 26888 ft 400 kts 275°
2026-04-30 20:04 33.92014 -86.78324 27054 ft 398 kts 275°
2026-04-30 20:05 33.92463 -86.84957 27419 ft 396 kts 275°
2026-04-30 20:05 33.92682 -86.88220 27605 ft 395 kts 275°
2026-04-30 20:05 33.93119 -86.94788 28008 ft 392 kts 275°
2026-04-30 20:06 33.93337 -86.98062 28215 ft 390 kts 275°
2026-04-30 20:06 33.93551 -87.01315 28417 ft 389 kts 275°
2026-04-30 20:06 33.93693 -87.03470 28550 ft 388 kts 275°
2026-04-30 20:06 33.93906 -87.06719 28772 ft 387 kts 275°
2026-04-30 20:07 33.94116 -87.09948 28968 ft 386 kts 275°
2026-04-30 20:07 33.94327 -87.13178 29096 ft 387 kts 275°
2026-04-30 20:07 33.94743 -87.19601 29688 ft 382 kts 275°
2026-04-30 20:08 33.94947 -87.22785 29992 ft 380 kts 275°
2026-04-30 20:08 33.95150 -87.25953 30218 ft 379 kts 275°
2026-04-30 20:08 33.95352 -87.29119 30392 ft 379 kts 275°
2026-04-30 20:08 33.95553 -87.32281 30620 ft 377 kts 275°
2026-04-30 20:09 33.95749 -87.35386 30860 ft 375 kts 275°
2026-04-30 20:09 33.95946 -87.38518 31077 ft 374 kts 275°
2026-04-30 20:09 33.96337 -87.44763 31469 ft 373 kts 275°
2026-04-30 20:10 33.96723 -87.50982 31922 ft 370 kts 275°
2026-04-30 20:10 33.96914 -87.54069 32142 ft 369 kts 275°
2026-04-30 20:10 33.97103 -87.57152 32352 ft 368 kts 275°
2026-04-30 20:11 33.97478 -87.63289 32747 ft 366 kts 275°
2026-04-30 20:11 33.97663 -87.66337 32960 ft 365 kts 275°
2026-04-30 20:11 33.97847 -87.69392 33170 ft 364 kts 275°
2026-04-30 20:12 33.98211 -87.75438 33493 ft 363 kts 275°
2026-04-30 20:12 33.98393 -87.78480 33673 ft 362 kts 275°
2026-04-30 20:12 33.98572 -87.81499 33883 ft 361 kts 275°
2026-04-30 20:13 33.98750 -87.84516 33980 ft 360 kts 275°
2026-04-30 20:13 33.99100 -87.90457 33988 ft 355 kts 275°
2026-04-30 20:14 33.99444 -87.96360 34001 ft 351 kts 275°
2026-04-30 20:14 33.99784 -88.02228 34007 ft 350 kts 275°
2026-04-30 20:15 34.00120 -88.08080 34005 ft 350 kts 275°
2026-04-30 20:15 34.00454 -88.13936 34009 ft 350 kts 275°
2026-04-30 20:16 34.00783 -88.19762 34018 ft 351 kts 275°
2026-04-30 20:16 34.01113 -88.25659 34011 ft 353 kts 275°
2026-04-30 20:17 34.01442 -88.31584 34009 ft 355 kts 275°
2026-04-30 20:17 34.01769 -88.37533 34013 ft 355 kts 275°
2026-04-30 20:18 34.02094 -88.43484 34013 ft 356 kts 275°
2026-04-30 20:18 34.02414 -88.49407 34011 ft 356 kts 275°
2026-04-30 20:19 34.02733 -88.55366 34022 ft 356 kts 275°
2026-04-30 20:19 34.03048 -88.61315 34026 ft 356 kts 275°
2026-04-30 20:20 34.03361 -88.67274 34035 ft 355 kts 275°
2026-04-30 20:20 34.03669 -88.73185 34041 ft 355 kts 275°
2026-04-30 20:21 34.03976 -88.79131 34040 ft 355 kts 275°
2026-04-30 20:21 34.04280 -88.85073 34040 ft 355 kts 275°
2026-04-30 20:22 34.04581 -88.91016 34038 ft 355 kts 275°
2026-04-30 20:22 34.04879 -88.96966 34039 ft 355 kts 274°
2026-04-30 20:23 34.05172 -89.02868 34035 ft 355 kts 274°
2026-04-30 20:23 34.05465 -89.08819 34031 ft 355 kts 274°
2026-04-30 20:24 34.05755 -89.14761 34037 ft 355 kts 274°
2026-04-30 20:24 34.06041 -89.20711 34033 ft 355 kts 274°
2026-04-30 20:25 34.06466 -89.29630 34033 ft 355 kts 274°
2026-04-30 20:26 34.06885 -89.38556 34036 ft 355 kts 274°
2026-04-30 20:26 34.07297 -89.47487 34039 ft 355 kts 274°
2026-04-30 20:27 34.07834 -89.59346 34036 ft 355 kts 274°
2026-04-30 20:28 34.08362 -89.71256 34033 ft 355 kts 274°
2026-04-30 20:30 34.09006 -89.86135 34033 ft 355 kts 274°
2026-04-30 20:31 34.09752 -90.03942 34031 ft 355 kts 274°
2026-04-30 20:32 34.10355 -90.18803 34032 ft 354 kts 274°
2026-04-30 20:33 34.10707 -90.27666 34042 ft 354 kts 274°
2026-04-30 20:34 34.11053 -90.36560 34048 ft 354 kts 274°
2026-04-30 20:35 34.11392 -90.45458 34049 ft 353 kts 273°
2026-04-30 20:35 34.11726 -90.54355 34056 ft 354 kts 273°
2026-04-30 20:36 34.11943 -90.60254 34056 ft 355 kts 273°
2026-04-30 20:37 34.12267 -90.69189 34056 ft 355 kts 273°
2026-04-30 20:37 34.12479 -90.75152 34052 ft 355 kts 273°
2026-04-30 20:38 34.12689 -90.81118 34053 ft 355 kts 273°
2026-04-30 20:38 34.12894 -90.87044 34051 ft 355 kts 273°
2026-04-30 20:39 34.13199 -90.95986 34050 ft 355 kts 273°
2026-04-30 20:40 34.13497 -91.04907 34055 ft 354 kts 273°
2026-04-30 20:40 34.13691 -91.10849 34052 ft 354 kts 273°
2026-04-30 20:41 34.13978 -91.19770 34043 ft 354 kts 273°
2026-04-30 20:41 34.14165 -91.25709 34051 ft 354 kts 273°
2026-04-30 20:42 34.14350 -91.31655 34050 ft 354 kts 273°
2026-04-30 20:43 34.14621 -91.40576 34053 ft 355 kts 273°
2026-04-30 20:43 34.14798 -91.46492 34048 ft 355 kts 273°
2026-04-30 20:44 34.15059 -91.55425 34042 ft 355 kts 272°
2026-04-30 20:45 34.15396 -91.67332 34049 ft 355 kts 272°
2026-04-30 20:45 34.15559 -91.73285 34051 ft 355 kts 272°
2026-04-30 20:46 34.15865 -91.85168 34044 ft 355 kts 272°
2026-04-30 20:47 34.16095 -91.94096 34079 ft 355 kts 272°
2026-04-30 20:48 34.16323 -92.03023 34074 ft 354 kts 272°
2026-04-30 20:48 34.16470 -92.08971 34069 ft 354 kts 272°
2026-04-30 20:49 34.16614 -92.14913 34067 ft 354 kts 272°
2026-04-30 20:50 34.16825 -92.23794 34058 ft 354 kts 272°
2026-04-30 20:50 34.16963 -92.29749 34037 ft 354 kts 272°
2026-04-30 20:51 34.17097 -92.35693 34044 ft 354 kts 271°
2026-04-30 20:51 34.17293 -92.44605 34050 ft 354 kts 271°
2026-04-30 20:52 34.17425 -92.50556 34049 ft 354 kts 272°
2026-04-30 20:53 34.17623 -92.59413 34042 ft 355 kts 272°
2026-04-30 20:53 34.17742 -92.65345 34040 ft 356 kts 272°
2026-04-30 20:54 34.17916 -92.74304 34050 ft 355 kts 272°
2026-04-30 20:55 34.18085 -92.83259 34081 ft 355 kts 272°
2026-04-30 20:55 34.18194 -92.89227 34116 ft 355 kts 271°
2026-04-30 20:56 34.18352 -92.98180 34092 ft 355 kts 271°
2026-04-30 20:57 34.18502 -93.07074 34088 ft 354 kts 271°
2026-04-30 20:57 34.18583 -93.12016 34091 ft 354 kts 271°
2026-04-30 20:58 34.18723 -93.20923 34086 ft 353 kts 271°
2026-04-30 20:58 34.18813 -93.26854 34077 ft 353 kts 271°
2026-04-30 20:59 34.18944 -93.35752 34061 ft 353 kts 271°
2026-04-30 21:00 34.19107 -93.47620 34055 ft 354 kts 271°
2026-04-30 21:01 34.19222 -93.56505 34037 ft 354 kts 271°
2026-04-30 21:02 34.19331 -93.65431 34040 ft 354 kts 271°
2026-04-30 21:02 34.19400 -93.71384 34038 ft 355 kts 271°
2026-04-30 21:03 34.19466 -93.77347 34041 ft 354 kts 271°
2026-04-30 21:03 34.19530 -93.83308 34028 ft 354 kts 270°
2026-04-30 21:04 34.19322 -93.89212 34040 ft 355 kts 263°
2026-04-30 21:04 34.17298 -93.97860 34039 ft 360 kts 255°
2026-04-30 21:05 34.15539 -94.03533 34041 ft 360 kts 254°
2026-04-30 21:05 34.13780 -94.09205 34029 ft 360 kts 255°
2026-04-30 21:06 34.12026 -94.14887 34032 ft 361 kts 255°
2026-04-30 21:06 34.10271 -94.20581 34018 ft 362 kts 254°
2026-04-30 21:07 34.08508 -94.26287 34023 ft 363 kts 254°
2026-04-30 21:07 34.06739 -94.32008 34018 ft 365 kts 254°
2026-04-30 21:08 34.04962 -94.37745 34020 ft 365 kts 254°
2026-04-30 21:08 34.03192 -94.43447 34019 ft 366 kts 254°
2026-04-30 21:09 34.01404 -94.49193 34016 ft 366 kts 254°
2026-04-30 21:09 33.99614 -94.54937 34023 ft 365 kts 254°
2026-04-30 21:10 33.97826 -94.60664 34016 ft 365 kts 254°
2026-04-30 21:10 33.96033 -94.66396 34027 ft 365 kts 254°
2026-04-30 21:11 33.94252 -94.72080 34034 ft 365 kts 254°
2026-04-30 21:11 33.92443 -94.77839 34032 ft 365 kts 254°
2026-04-30 21:12 33.90654 -94.83526 34024 ft 365 kts 254°
2026-04-30 21:12 33.88852 -94.89244 34029 ft 365 kts 254°
2026-04-30 21:13 33.87047 -94.94960 34030 ft 365 kts 254°
2026-04-30 21:13 33.85241 -95.00670 34010 ft 365 kts 253°
2026-04-30 21:14 33.83430 -95.06386 34016 ft 365 kts 254°
2026-04-30 21:14 33.81614 -95.12106 34030 ft 367 kts 254°
2026-04-30 21:15 33.79788 -95.17843 34029 ft 368 kts 253°
2026-04-30 21:15 33.77961 -95.23571 34024 ft 370 kts 253°
2026-04-30 21:16 33.76117 -95.29344 34024 ft 370 kts 253°
2026-04-30 21:16 33.74265 -95.35124 34002 ft 371 kts 253°
2026-04-30 21:17 33.72399 -95.40900 34008 ft 370 kts 253°
2026-04-30 21:17 33.70534 -95.46666 34011 ft 370 kts 253°
2026-04-30 21:18 33.68665 -95.52437 34005 ft 370 kts 253°
2026-04-30 21:18 33.66795 -95.58203 33821 ft 373 kts 253°
2026-04-30 21:19 33.65852 -95.61114 33064 ft 376 kts 253°
2026-04-30 21:19 33.64907 -95.64012 32365 ft 371 kts 253°
2026-04-30 21:19 33.63967 -95.66899 31532 ft 372 kts 253°
2026-04-30 21:19 33.63028 -95.69782 30709 ft 368 kts 253°
2026-04-30 21:20 33.62115 -95.72574 30526 ft 349 kts 254°
2026-04-30 21:20 33.61240 -95.75253 30311 ft 339 kts 254°
2026-04-30 21:20 33.60380 -95.77892 30168 ft 342 kts 254°
2026-04-30 21:20 33.59505 -95.80581 30011 ft 350 kts 254°
2026-04-30 21:21 33.58605 -95.83350 29438 ft 359 kts 253°
2026-04-30 21:21 33.57697 -95.86123 28962 ft 356 kts 253°
2026-04-30 21:21 33.55918 -95.91532 28031 ft 347 kts 253°
2026-04-30 21:22 33.55040 -95.94204 27575 ft 343 kts 253°
2026-04-30 21:22 33.52436 -96.02133 26221 ft 342 kts 252°
2026-04-30 21:23 33.51559 -96.04804 25779 ft 346 kts 252°
2026-04-30 21:23 33.50676 -96.07486 25322 ft 345 kts 252°
2026-04-30 21:23 33.48918 -96.12813 24401 ft 340 kts 251°
2026-04-30 21:24 33.48056 -96.15422 23959 ft 336 kts 251°
2026-04-30 21:24 33.47195 -96.18030 23481 ft 338 kts 251°
2026-04-30 21:24 33.46328 -96.20653 22982 ft 338 kts 251°
2026-04-30 21:24 33.45472 -96.23237 22515 ft 337 kts 251°
2026-04-30 21:25 33.43088 -96.28066 21602 ft 341 kts 234°
2026-04-30 21:25 33.41528 -96.30181 21146 ft 337 kts 234°
2026-04-30 21:25 33.39973 -96.32262 20700 ft 334 kts 234°
2026-04-30 21:26 33.36940 -96.36380 19830 ft 325 kts 234°
2026-04-30 21:26 33.35474 -96.38390 19390 ft 314 kts 235°
2026-04-30 21:27 33.32642 -96.42283 18583 ft 309 kts 236°
2026-04-30 21:27 33.31254 -96.44223 18136 ft 303 kts 236°
2026-04-30 21:27 33.29907 -96.46113 17700 ft 295 kts 236°
2026-04-30 21:28 33.27305 -96.49759 16917 ft 279 kts 235°
2026-04-30 21:28 33.26044 -96.51453 16678 ft 266 kts 234°
2026-04-30 21:28 33.23599 -96.54662 16155 ft 257 kts 234°
2026-04-30 21:29 33.22406 -96.56236 15902 ft 255 kts 234°
2026-04-30 21:29 33.18792 -96.61016 15177 ft 263 kts 234°
2026-04-30 21:30 33.16365 -96.64282 14688 ft 260 kts 234°
2026-04-30 21:31 33.12824 -96.69144 14046 ft 259 kts 234°
2026-04-30 21:31 33.10475 -96.72367 13588 ft 260 kts 234°
2026-04-30 21:32 33.08116 -96.75590 13157 ft 253 kts 233°
2026-04-30 21:32 33.06956 -96.77172 12980 ft 254 kts 233°
2026-04-30 21:32 33.05783 -96.78767 12866 ft 257 kts 233°
2026-04-30 21:32 33.04591 -96.80383 12736 ft 261 kts 233°
2026-04-30 21:33 33.03397 -96.82000 12600 ft 258 kts 233°
2026-04-30 21:33 33.01174 -96.85001 12338 ft 225 kts 233°
2026-04-30 21:33 33.00163 -96.86366 11970 ft 217 kts 234°
2026-04-30 21:34 32.99164 -96.87719 11383 ft 218 kts 233°
2026-04-30 21:34 32.96884 -96.90115 10365 ft 227 kts 204°
2026-04-30 21:34 32.95393 -96.90512 10158 ft 219 kts 193°
2026-04-30 21:35 32.93870 -96.90633 9771 ft 220 kts 190°
2026-04-30 21:35 32.92340 -96.90714 9373 ft 219 kts 189°
2026-04-30 21:35 32.90818 -96.90801 9002 ft 217 kts 190°
2026-04-30 21:35 32.89313 -96.90894 8626 ft 216 kts 189°
2026-04-30 21:36 32.87821 -96.90987 8253 ft 214 kts 189°
2026-04-30 21:36 32.86338 -96.91087 7884 ft 212 kts 189°
2026-04-30 21:37 32.81967 -96.91400 6831 ft 207 kts 188°
2026-04-30 21:37 32.80546 -96.91502 6479 ft 206 kts 187°
2026-04-30 21:37 32.79117 -96.91596 6112 ft 205 kts 185°
2026-04-30 21:37 32.77702 -96.91604 5773 ft 203 kts 182°
2026-04-30 21:38 32.76297 -96.91599 5421 ft 199 kts 183°
2026-04-30 21:38 32.74922 -96.91594 5150 ft 195 kts 181°
2026-04-30 21:38 32.73586 -96.91587 4873 ft 191 kts 179°
2026-04-30 21:38 32.72267 -96.91579 4519 ft 188 kts 178°
2026-04-30 21:39 32.70949 -96.91574 4112 ft 190 kts 176°
2026-04-30 21:39 32.69609 -96.91581 3674 ft 195 kts 180°
2026-04-30 21:39 32.68369 -96.92243 3522 ft 204 kts 228°
2026-04-30 21:39 32.67831 -96.93838 3515 ft 216 kts 268°
2026-04-30 21:40 32.68163 -96.95537 3493 ft 210 kts 306°
2026-04-30 21:40 32.69151 -96.96768 3538 ft 207 kts 322°
2026-04-30 21:40 32.70256 -96.97869 3526 ft 208 kts 323°
2026-04-30 21:40 32.71354 -96.98962 3529 ft 209 kts 322°
2026-04-30 21:41 32.72438 -97.00047 3502 ft 196 kts 322°
2026-04-30 21:41 32.73446 -97.01059 3517 ft 186 kts 323°
2026-04-30 21:41 32.74450 -97.02059 3527 ft 188 kts 325°
2026-04-30 21:41 32.75592 -97.02647 3429 ft 175 kts
2026-04-30 21:42 32.76793 -97.02639 3051 ft 173 kts
2026-04-30 21:42 32.78005 -97.02663 2596 ft 172 kts
2026-04-30 21:42 32.79160 -97.02666 2364 ft 158 kts
2026-04-30 21:42 32.80197 -97.02662 2106 ft 148 kts
2026-04-30 21:43 32.81207 -97.02653 1951 ft 139 kts
2026-04-30 21:43 32.81863 -97.02666 1803 ft 145 kts
2026-04-30 21:43 32.83223 -97.02708 1525 ft 151 kts
2026-04-30 21:43 32.84259 -97.02656 1374 ft 147 kts
2026-04-30 21:44 32.85284 -97.02624 1163 ft 148 kts 358°
2026-04-30 21:44 32.86295 -97.02634 941 ft 143 kts
2026-04-30 21:44 32.87307 -97.02620 724 ft 150 kts
2026-04-30 21:44 32.88359 -97.02625 587 ft 153 kts
2026-04-30 21:45 32.89341 -97.02610 573 ft 125 kts
2026-04-30 21:45 32.89990 -97.02608 571 ft 61 kts 359°
2026-04-30 21:45 32.90223 -97.02643 576 ft 25 kts 336°
2026-04-30 21:45 32.90376 -97.02738 577 ft 29 kts 331°
2026-04-30 21:46 32.90439 -97.02787 579 ft 15 kts 316°
2026-04-30 21:46 32.90460 -97.02907 574 ft 16 kts 274°
2026-04-30 21:46 32.90466 -97.03039 572 ft 16 kts 271°
2026-04-30 21:46 32.90459 -97.03164 574 ft 15 kts 237°
2026-04-30 21:47 32.90363 -97.03183 574 ft 14 kts 184°
2026-04-30 21:47 32.90269 -97.03189 574 ft 13 kts 182°
2026-04-30 21:47 32.90178 -97.03190 576 ft 13 kts 180°
2026-04-30 21:47 32.90092 -97.03190 577 ft 12 kts 180°
2026-04-30 21:48 32.90004 -97.03190 578 ft 12 kts 180°
2026-04-30 21:48 32.89910 -97.03190 581 ft 17 kts 181°
2026-04-30 21:48 32.89794 -97.03191 578 ft 17 kts 180°
2026-04-30 21:48 32.89680 -97.03192 579 ft 16 kts 180°
2026-04-30 21:49 32.89570 -97.03192 579 ft 16 kts 181°
2026-04-30 21:49 32.89448 -97.03194 579 ft 18 kts 180°
2026-04-30 21:49 32.89327 -97.03195 577 ft 17 kts 180°
2026-04-30 21:49 32.89219 -97.03193 576 ft 11 kts 178°
2026-04-30 21:50 32.89175 -97.03250 577 ft 11 kts 268°
2026-04-30 21:50 32.89174 -97.03340 583 ft 11 kts 271°
2026-04-30 21:50 32.89175 -97.03410 583 ft 1 kts 270°
2026-04-30 21:50 32.89173 -97.03419 583 ft 1 kts 255°
2026-04-30 21:51 32.89169 -97.03426 583 ft 1 kts 231°
2026-04-30 21:51 32.89163 -97.03434 583 ft 2 kts 232°
2026-04-30 21:51 32.89139 -97.03487 583 ft 8 kts 244°
2026-04-30 21:51 32.89129 -97.03515 583 ft 2 kts 246°
2026-04-30 21:52 32.89127 -97.03521 583 ft 0 kts 247°